SKYNET 5A

Last updated on Sun Apr 12 2026 00:02:51 GMT+0000 (Coordinated Universal Time)

1 30794U 07007B 26101.46824843 -.00000266 00000+0 00000+0 0 9999 2 30794 5.1325 74.5329 0003923 315.0649 73.8696 1.00274047 70030
UTC large
Height (km)
Speed (km/s)
/
Latitude / Longitude
Inclination (degrees)
Orbital Period (minutes)
Azimuth
Elevation
Range (km)
Doppler Factor

Next 0 passes for location: London (51.5072 / 0.1276)

Sorry there are no passes over London.
SKYNET 5A